| time (UTC) | temp F | wind direction | speed MPH | gust MPH | rain 1hr in | rain 24hr in | rain mn in | humidity % | barometer mb |
| 20260508065017 | 39 | 0.0 | 0.0 | 0.00 | 0.00 | 0.00 | 63 | 1007.5 | |
| 20260508064017 | 38 | 0.0 | 0.0 | 0.00 | 0.00 | 0.00 | 63 | 1007.4 | |
| 20260508063017 | 38 | 0.0 | 0.0 | 0.00 | 0.00 | 0.00 | 64 | 1007.3 | |
| 20260508062017 | 38 | 0.0 | 0.0 | 0.00 | 0.00 | 0.00 | 64 | 1007.3 | |
| 20260508061016 | 39 | 0.0 | 0.0 | 0.00 | 0.00 | 0.00 | 64 | 1007.2 | |
| 20260508060017 | 39 | 0.0 | 0.0 | 0.00 | 0.00 | 0.00 | 63 | 1007.2 | |
| 20260508055017 | 39 | 0.0 | 0.0 | 0.00 | 0.00 | 0.00 | 63 | 1007.4 | |
| 20260508054017 | 40 | 0.0 | 0.0 | 0.00 | 0.00 | 0.00 | 62 | 1007.6 | |
| 20260508053017 | 41 | 0.0 | 0.0 | 0.00 | 0.00 | 0.00 | 60 | 1007.8 | |
| 20260508052017 | 41 | 0.0 | 0.0 | 0.00 | 0.00 | 0.00 | 59 | 1007.8 | |
| 20260508051017 | 41 | 0.0 | 0.0 | 0.00 | 0.00 | 0.00 | 60 | 1007.6 | |
| 20260508050017 | 41 | 0.0 | 0.0 | 0.00 | 0.00 | 0.00 | 60 | 1007.7 | |
| 20260508045037 | 41 | 0.0 | 0.0 | 0.00 | 0.00 | 0.00 | 60 | 1007.7 | |
| 20260508044017 | 41 | 0.0 | 0.0 | 0.00 | 0.00 | 0.00 | 61 | 1007.9 | |
| 20260508043017 | 41 | 0.0 | 0.0 | 0.00 | 0.00 | 0.00 | 62 | 1007.9 | |
| 20260508042017 | 40 | 0.0 | 0.0 | 0.00 | 0.00 | 0.00 | 63 | 1008.1 | |
| 20260508041018 | 40 | 0.0 | 0.0 | 0.00 | 0.00 | 0.00 | 64 | 1007.9 | |
| 20260508040040 | 41 | 0.0 | 0.0 | 0.00 | 0.00 | 0.00 | 62 | 1008.0 | |
| 20260508035017 | 41 | 0.0 | 0.0 | 0.00 | 0.00 | 0.00 | 61 | 1007.9 | |
| 20260508034017 | 41 | 0.0 | 0.0 | 0.00 | 0.00 | 0.00 | 61 | 1007.8 | |
| 20260508033017 | 41 | 0.0 | 0.0 | 0.00 | 0.00 | 0.00 | 62 | 1007.8 | |
| 20260508032017 | 41 | 0.0 | 0.0 | 0.00 | 0.00 | 0.00 | 61 | 1007.9 | |
| 20260508031018 | 42 | 0.0 | 0.0 | 0.00 | 0.00 | 0.00 | 61 | 1007.8 | |
| 20260508030037 | 42 | 0.0 | 0.0 | 0.00 | 0.00 | 0.00 | 59 | 1007.8 | |
| 20260508025038 | 43 | 0.0 | 0.0 | 0.00 | 0.00 | 0.00 | 59 | 1007.9 | |
| 20260508024017 | 43 | 0.0 | 0.0 | 0.00 | 0.00 | 0.00 | 58 | 1007.8 | |
| 20260508023037 | 44 | 0.0 | 0.0 | 0.00 | 0.00 | 0.00 | 58 | 1007.8 | |
| 20260508022018 | 44 | 0.0 | 0.0 | 0.00 | 0.00 | 0.00 | 57 | 1007.8 | |
| 20260508021017 | 44 | 0.0 | 0.0 | 0.00 | 0.00 | 0.00 | 56 | 1007.8 | |
| 20260508020017 | 45 | 0.0 | 0.0 | 0.00 | 0.00 | 0.00 | 55 | 1007.7 | |
| 20260508015017 | 45 | 0.0 | 0.0 | 0.00 | 0.00 | 0.00 | 54 | 1007.8 | |
| 20260508014037 | 46 | 0.0 | 1.0 | 0.00 | 0.00 | 0.00 | 53 | 1007.9 | |
| 20260508013018 | 46 | 0.0 | 1.0 | 0.00 | 0.00 | 0.00 | 51 | 1007.6 | |
| 20260508012017 | 47 | 0.0 | 2.0 | 0.00 | 0.00 | 0.00 | 52 | 1007.5 | |
| 20260508011038 | 47 | 0.0 | 2.0 | 0.00 | 0.00 | 0.00 | 51 | 1007.3 | |
| 20260508010017 | 47 | 0.0 | 3.0 | 0.00 | 0.00 | 0.00 | 51 | 1007.2 | |
| 20260508005017 | 47 | 0.0 | 2.0 | 0.00 | 0.00 | 0.00 | 51 | 1007.0 | |
| 20260508004017 | 47 | 0.0 | 2.0 | 0.00 | 0.00 | 0.00 | 51 | 1006.9 | |
| 20260508003017 | 47 | 225 | 1.0 | 5.0 | 0.00 | 0.00 | 0.00 | 50 | 1006.8 |
| 20260508002017 | 48 | 0.0 | 1.0 | 0.00 | 0.00 | 0.00 | 50 | 1006.8 | |
| 20260508001017 | 48 | 0.0 | 1.0 | 0.00 | 0.00 | 0.00 | 51 | 1006.7 | |
| 20260508000017 | 49 | 0.0 | 1.0 | 0.00 | 0.00 | 0.00 | 48 | 1006.7 | |
| 20260507235018 | 50 | 0.0 | 1.0 | 0.00 | 0.00 | 0.00 | 47 | 1006.7 | |
| 20260507234018 | 50 | 270 | 1.0 | 4.0 | 0.00 | 0.00 | 0.00 | 46 | 1006.6 |
| 20260507233017 | 51 | 248 | 1.0 | 5.0 | 0.00 | 0.00 | 0.00 | 44 | 1006.5 |
| 20260507232017 | 52 | 0.0 | 2.0 | 0.00 | 0.00 | 0.00 | 43 | 1006.3 | |
| 20260507231017 | 52 | 0.0 | 3.0 | 0.00 | 0.00 | 0.00 | 44 | 1006.3 | |
| 20260507230018 | 52 | 225 | 1.0 | 5.0 | 0.00 | 0.00 | 0.00 | 43 | 1006.2 |
| 20260507225017 | 52 | 270 | 1.0 | 6.0 | 0.00 | 0.00 | 0.00 | 42 | 1006.1 |
| 20260507224018 | 53 | 248 | 2.0 | 5.0 | 0.00 | 0.00 | 0.00 | 42 | 1006.3 |
| 20260507223017 | 53 | 248 | 2.0 | 12.0 | 0.00 | 0.00 | 0.00 | 41 | 1006.2 |
| 20260507222017 | 53 | 248 | 2.0 | 7.0 | 0.00 | 0.00 | 0.00 | 41 | 1006.1 |
| 20260507221138 | 53 | 248 | 1.0 | 5.0 | 0.00 | 0.00 | 0.00 | 43 | 1006.1 |
| 20260507220037 | 53 | 248 | 2.0 | 10.0 | 0.00 | 0.00 | 0.00 | 42 | 1006.2 |
| 20260507215017 | 54 | 248 | 1.0 | 7.0 | 0.00 | 0.00 | 0.00 | 41 | 1006.0 |
| 20260507214017 | 54 | 293 | 1.0 | 4.0 | 0.00 | 0.00 | 0.00 | 41 | 1006.0 |
| 20260507213018 | 54 | 248 | 2.0 | 8.0 | 0.00 | 0.00 | 0.00 | 40 | 1006.0 |
| 20260507212017 | 56 | 270 | 2.0 | 8.0 | 0.00 | 0.00 | 0.00 | 40 | 1005.9 |
| 20260507211017 | 56 | 270 | 3.0 | 11.0 | 0.00 | 0.00 | 0.00 | 39 | 1005.8 |
| 20260507210038 | 55 | 248 | 2.0 | 7.0 | 0.00 | 0.00 | 0.00 | 40 | 1006.0 |
| 20260507205017 | 56 | 270 | 1.0 | 6.0 | 0.00 | 0.00 | 0.00 | 41 | 1005.9 |
| 20260507204017 | 56 | 225 | 2.0 | 7.0 | 0.00 | 0.00 | 0.00 | 40 | 1005.9 |
| 20260507203058 | 56 | 270 | 3.0 | 10.0 | 0.00 | 0.00 | 0.00 | 39 | 1005.9 |
| 20260507202018 | 56 | 270 | 1.0 | 8.0 | 0.00 | 0.00 | 0.00 | 42 | 1005.9 |
| 20260507201017 | 56 | 248 | 3.0 | 8.0 | 0.00 | 0.00 | 0.00 | 39 | 1005.9 |
| 20260507200018 | 57 | 225 | 2.0 | 9.0 | 0.00 | 0.00 | 0.00 | 40 | 1006.1 |
| 20260507195017 | 57 | 248 | 3.0 | 12.0 | 0.00 | 0.00 | 0.00 | 40 | 1006.2 |
| 20260507194018 | 57 | 248 | 3.0 | 10.0 | 0.00 | 0.00 | 0.00 | 40 | 1006.1 |
| 20260507193017 | 57 | 270 | 2.0 | 8.0 | 0.00 | 0.00 | 0.00 | 38 | 1006.3 |
| 20260507192018 | 58 | 248 | 2.0 | 9.0 | 0.00 | 0.00 | 0.00 | 38 | 1006.3 |
| 20260507191017 | 57 | 270 | 1.0 | 7.0 | 0.00 | 0.00 | 0.00 | 40 | 1006.4 |
| 20260507190017 | 57 | 225 | 4.0 | 12.0 | 0.00 | 0.00 | 0.00 | 39 | 1006.5 |
| 20260507185017 | 56 | 248 | 3.0 | 8.0 | 0.00 | 0.00 | 0.00 | 41 | 1006.4 |
| 20260507184017 | 56 | 248 | 2.0 | 9.0 | 0.00 | 0.00 | 0.00 | 42 | 1006.6 |
| 20260507183017 | 56 | 248 | 4.0 | 12.0 | 0.00 | 0.00 | 0.00 | 42 | 1006.8 |
| 20260507182038 | 56 | 248 | 2.0 | 7.0 | 0.00 | 0.00 | 0.00 | 42 | 1007.0 |
| 20260507181017 | 56 | 248 | 3.0 | 7.0 | 0.00 | 0.00 | 0.00 | 42 | 1007.1 |
| 20260507180017 | 56 | 270 | 4.0 | 9.0 | 0.00 | 0.00 | 0.00 | 41 | 1007.0 |
| 20260507175018 | 56 | 248 | 2.0 | 6.0 | 0.00 | 0.00 | 0.00 | 41 | 1006.8 |
| 20260507174017 | 57 | 248 | 1.0 | 7.0 | 0.00 | 0.00 | 0.00 | 43 | 1007.0 |
| 20260507173017 | 57 | 248 | 2.0 | 5.0 | 0.00 | 0.00 | 0.00 | 44 | 1007.0 |
| 20260507172017 | 57 | 248 | 1.0 | 6.0 | 0.00 | 0.00 | 0.00 | 43 | 1006.8 |
| 20260507171017 | 55 | 248 | 2.0 | 8.0 | 0.00 | 0.00 | 0.00 | 42 | 1007.0 |
| 20260507170017 | 55 | 225 | 3.0 | 9.0 | 0.00 | 0.00 | 0.00 | 44 | 1007.0 |
| 20260507165018 | 55 | 270 | 2.0 | 8.0 | 0.00 | 0.00 | 0.00 | 42 | 1007.4 |
| 20260507164017 | 56 | 248 | 1.0 | 3.0 | 0.00 | 0.00 | 0.00 | 44 | 1007.4 |
| 20260507163018 | 55 | 248 | 2.0 | 8.0 | 0.00 | 0.00 | 0.00 | 44 | 1007.6 |
| 20260507162017 | 56 | 248 | 1.0 | 6.0 | 0.00 | 0.00 | 0.00 | 47 | 1007.8 |
| 20260507161017 | 55 | 270 | 2.0 | 8.0 | 0.00 | 0.00 | 0.00 | 45 | 1007.9 |
| 20260507160017 | 54 | 248 | 2.0 | 10.0 | 0.00 | 0.00 | 0.00 | 47 | 1007.9 |
| 20260507155038 | 54 | 270 | 1.0 | 6.0 | 0.00 | 0.00 | 0.00 | 48 | 1008.0 |
| 20260507154037 | 53 | 248 | 2.0 | 7.0 | 0.00 | 0.00 | 0.00 | 48 | 1008.2 |
| 20260507153017 | 53 | 270 | 2.0 | 9.0 | 0.00 | 0.00 | 0.00 | 49 | 1008.0 |
| 20260507152018 | 52 | 68 | 1.0 | 6.0 | 0.00 | 0.00 | 0.00 | 49 | 1007.9 |
| 20260507151017 | 52 | 248 | 1.0 | 5.0 | 0.00 | 0.00 | 0.00 | 51 | 1008.1 |
| 20260507150038 | 52 | 270 | 1.0 | 4.0 | 0.00 | 0.00 | 0.00 | 51 | 1008.1 |
| 20260507145017 | 51 | 270 | 1.0 | 5.0 | 0.00 | 0.00 | 0.00 | 50 | 1008.2 |
| 20260507144017 | 51 | 248 | 4.0 | 9.0 | 0.00 | 0.00 | 0.00 | 51 | 1008.3 |
| 20260507143017 | 50 | 270 | 3.0 | 6.0 | 0.00 | 0.00 | 0.00 | 49 | 1008.2 |
| 20260507142018 | 51 | 248 | 2.0 | 6.0 | 0.00 | 0.00 | 0.00 | 52 | 1008.2 |
| 20260507141017 | 50 | 248 | 2.0 | 6.0 | 0.00 | 0.00 | 0.00 | 56 | 1008.0 |
| 20260507140017 | 49 | 270 | 2.0 | 7.0 | 0.00 | 0.00 | 0.00 | 59 | 1008.1 |
| 20260507135018 | 49 | 225 | 1.0 | 5.0 | 0.00 | 0.00 | 0.00 | 60 | 1008.0 |
| 20260507133017 | 48 | 270 | 1.0 | 3.0 | 0.00 | 0.00 | 0.00 | 61 | 1007.9 |
| 20260507132018 | 47 | 23 | 1.0 | 4.0 | 0.00 | 0.00 | 0.00 | 65 | 1007.9 |
| 20260507131037 | 47 | 248 | 1.0 | 5.0 | 0.00 | 0.00 | 0.00 | 62 | 1008.1 |
| 20260507130017 | 47 | 248 | 1.0 | 4.0 | 0.00 | 0.00 | 0.00 | 65 | 1008.2 |
| 20260507125038 | 46 | 248 | 1.0 | 6.0 | 0.00 | 0.00 | 0.00 | 68 | 1007.9 |
| 20260507124017 | 46 | 225 | 1.0 | 5.0 | 0.00 | 0.00 | 0.00 | 70 | 1008.1 |
| 20260507123018 | 45 | 248 | 1.0 | 4.0 | 0.00 | 0.00 | 0.00 | 74 | 1008.0 |
| 20260507122017 | 45 | 248 | 1.0 | 5.0 | 0.00 | 0.00 | 0.00 | 82 | 1008.1 |
| 20260507121057 | 45 | 270 | 1.0 | 4.0 | 0.00 | 0.00 | 0.00 | 85 | 1008.0 |
| 20260507120017 | 44 | 270 | 2.0 | 11.0 | 0.00 | 0.00 | 0.00 | 88 | 1007.9 |
| 20260507115057 | 44 | 248 | 1.0 | 6.0 | 0.00 | 0.00 | 0.00 | 93 | 1007.8 |
| 20260507114017 | 44 | 0.0 | 1.0 | 0.00 | 0.00 | 0.00 | 94 | 1007.7 | |
| 20260507113037 | 43 | 0.0 | 3.0 | 0.00 | 0.00 | 0.00 | 95 | 1007.5 | |
| 20260507112017 | 43 | 0.0 | 2.0 | 0.00 | 0.00 | 0.00 | 95 | 1007.4 | |
| 20260507111018 | 43 | 0.0 | 2.0 | 0.00 | 0.00 | 0.00 | 95 | 1007.3 | |
| 20260507110018 | 43 | 0.0 | 1.0 | 0.00 | 0.00 | 0.00 | 95 | 1007.3 | |
| 20260507105018 | 43 | 0.0 | 1.0 | 0.00 | 0.00 | 0.00 | 95 | 1007.2 | |
| 20260507104017 | 43 | 0.0 | 1.0 | 0.00 | 0.00 | 0.00 | 95 | 1006.9 | |
| 20260507103017 | 43 | 225 | 1.0 | 4.0 | 0.00 | 0.00 | 0.00 | 95 | 1006.8 |
| 20260507102017 | 43 | 0.0 | 1.0 | 0.00 | 0.00 | 0.00 | 95 | 1006.8 | |
| 20260507101038 | 43 | 0.0 | 1.0 | 0.00 | 0.00 | 0.00 | 96 | 1006.6 | |
| 20260507100017 | 43 | 0.0 | 1.0 | 0.00 | 0.00 | 0.00 | 96 | 1006.4 | |
| 20260507095017 | 43 | 0.0 | 0.0 | 0.00 | 0.00 | 0.00 | 96 | 1006.4 | |
| 20260507094017 | 44 | 0.0 | 1.0 | 0.00 | 0.00 | 0.00 | 96 | 1006.7 | |
| 20260507093039 | 44 | 0.0 | 0.0 | 0.00 | 0.00 | 0.00 | 96 | 1006.7 | |
| 20260507092057 | 44 | 0.0 | 0.0 | 0.00 | 0.00 | 0.00 | 96 | 1006.7 | |
| 20260507091017 | 44 | 0.0 | 1.0 | 0.00 | 0.00 | 0.00 | 96 | 1007.0 | |
| 20260507090017 | 44 | 0.0 | 0.0 | 0.00 | 0.00 | 0.00 | 96 | 1007.0 | |
| 20260507085018 | 44 | 0.0 | 0.0 | 0.00 | 0.00 | 0.00 | 96 | 1006.9 | |
| 20260507084017 | 45 | 0.0 | 0.0 | 0.00 | 0.00 | 0.00 | 96 | 1006.8 | |
| 20260507083018 | 45 | 0.0 | 0.0 | 0.00 | 0.00 | 0.00 | 96 | 1007.0 | |
| 20260507082017 | 45 | 0.0 | 0.0 | 0.00 | 0.00 | 0.00 | 96 | 1007.4 | |
| 20260507081017 | 45 | 0.0 | 1.0 | 0.00 | 0.00 | 0.00 | 96 | 1007.0 | |
| 20260507080017 | 45 | 0.0 | 3.0 | 0.00 | 0.00 | 0.00 | 96 | 1007.0 | |
| 20260507075017 | 45 | 0.0 | 2.0 | 0.00 | 0.00 | 0.00 | 96 | 1006.7 | |
| 20260507074018 | 45 | 0.0 | 0.0 | 0.00 | 0.00 | 0.00 | 96 | 1006.9 | |
| 20260507073017 | 45 | 0.0 | 1.0 | 0.00 | 0.00 | 0.00 | 96 | 1006.9 | |
| 20260507072017 | 45 | 0.0 | 1.0 | 0.00 | 0.00 | 0.00 | 96 | 1006.3 | |
| 20260507071018 | 45 | 0.0 | 1.0 | 0.00 | 0.00 | 0.00 | 96 | 1006.6 | |
| 20260507070017 | 45 | 0.0 | 2.0 | 0.00 | 0.00 | 0.00 | 96 | 1007.0 |